Time,TemperatureF,DewpointF,PressureIn,WindDirection,WindDirectionDegrees,WindSpeedMPH,WindSpeedGustMPH,Humidity,HourlyPrecipIn,Conditions,Clouds,dailyrainin,SolarRadiationWatts/m^2,SoftwareType,DateUTC
2013-08-02 00:22:00,59.0,52.0,-100.00,WNW,285,7.0,18.0,78,0.00,,,0.07,1.000000,,2013-08-02 06:22:00,
2013-08-02 00:33:00,59.0,52.0,-100.00,WNW,285,7.0,18.0,78,0.00,,,0.07,1.000000,,2013-08-02 06:33:00,
2013-08-02 00:43:00,59.0,52.0,-100.00,WNW,285,7.0,18.0,78,0.00,,,0.07,1.000000,,2013-08-02 06:43:00,
2013-08-02 00:52:00,59.0,52.0,-100.00,WNW,285,7.0,18.0,78,0.00,,,0.07,1.000000,,2013-08-02 06:52:00,
2013-08-02 01:22:00,52.0,49.0,-100.00,ENE,57,3.0,14.0,91,0.15,,,0.22,1.000000,,2013-08-02 07:22:00,
2013-08-02 01:33:00,52.0,49.0,-100.00,ENE,57,3.0,14.0,91,0.15,,,0.22,1.000000,,2013-08-02 07:33:00,
2013-08-02 01:44:00,52.0,49.0,-100.00,ENE,57,3.0,14.0,91,0.15,,,0.22,1.000000,,2013-08-02 07:44:00,
2013-08-02 01:53:00,52.0,49.0,-100.00,ENE,57,3.0,14.0,91,0.15,,,0.22,1.000000,,2013-08-02 07:53:00,
2013-08-02 01:54:00,52.0,50.0,-100.00,SSE,165,0.0,9.0,93,0.16,,,0.38,1.000000,,2013-08-02 07:54:00,
2013-08-02 02:22:00,52.0,50.0,-100.00,SSE,165,0.0,9.0,93,0.16,,,0.38,1.000000,,2013-08-02 08:22:00,
2013-08-02 02:33:00,52.0,50.0,-100.00,SSE,165,0.0,9.0,93,0.16,,,0.38,1.000000,,2013-08-02 08:33:00,
2013-08-02 02:43:00,52.0,50.0,-100.00,SSE,165,0.0,9.0,93,0.16,,,0.38,1.000000,,2013-08-02 08:43:00,
2013-08-02 03:22:00,52.0,49.0,-100.00,ESE,110,2.0,11.0,90,0.10,,,0.48,1.000000,,2013-08-02 09:22:00,
2013-08-02 03:33:00,52.0,49.0,-100.00,ESE,110,2.0,11.0,90,0.10,,,0.48,1.000000,,2013-08-02 09:33:00,
2013-08-02 03:43:00,52.0,49.0,-100.00,ESE,110,2.0,11.0,90,0.10,,,0.48,1.000000,,2013-08-02 09:43:00,
2013-08-02 03:53:00,52.0,49.0,-100.00,ESE,110,2.0,11.0,90,0.10,,,0.48,1.000000,,2013-08-02 09:53:00,
2013-08-02 04:23:00,52.0,48.0,-100.00,East,94,2.0,7.0,86,0.00,,,0.48,1.000000,,2013-08-02 10:23:00,
2013-08-02 04:33:00,52.0,48.0,-100.00,East,94,2.0,7.0,86,0.00,,,0.48,1.000000,,2013-08-02 10:33:00,
2013-08-02 04:43:00,52.0,48.0,-100.00,East,94,2.0,7.0,86,0.00,,,0.48,1.000000,,2013-08-02 10:43:00,
2013-08-02 04:52:00,52.0,48.0,-100.00,East,94,2.0,7.0,86,0.00,,,0.48,1.000000,,2013-08-02 10:52:00,
2013-08-02 05:23:00,51.0,46.0,-100.00,ENE,61,0.0,6.0,84,0.00,,,-99.99,1.000000,,2013-08-02 11:23:00,
2013-08-02 05:32:00,51.0,46.0,-100.00,ENE,61,0.0,6.0,84,0.00,,,-99.99,1.000000,,2013-08-02 11:32:00,
2013-08-02 05:43:00,51.0,46.0,-100.00,ENE,61,0.0,6.0,84,0.00,,,-99.99,1.000000,,2013-08-02 11:43:00,
2013-08-02 05:52:00,51.0,46.0,-100.00,ENE,61,0.0,6.0,84,0.00,,,-99.99,1.000000,,2013-08-02 11:52:00,
2013-08-02 06:22:00,51.0,45.0,-100.00,ENE,64,4.0,8.0,81,0.00,,,0.48,1.000000,,2013-08-02 12:22:00,
2013-08-02 06:33:00,51.0,45.0,-100.00,ENE,64,4.0,8.0,81,0.00,,,0.48,1.000000,,2013-08-02 12:33:00,
2013-08-02 06:43:00,51.0,45.0,-100.00,ENE,64,4.0,8.0,81,0.00,,,0.48,1.000000,,2013-08-02 12:43:00,
2013-08-02 06:52:00,51.0,45.0,-100.00,ENE,64,4.0,8.0,81,0.00,,,0.48,1.000000,,2013-08-02 12:52:00,
2013-08-02 07:22:00,50.0,47.0,-100.00,NE,48,2.0,4.0,88,0.00,,,0.48,6.000000,,2013-08-02 13:22:00,
2013-08-02 07:33:00,50.0,47.0,-100.00,NE,48,2.0,4.0,88,0.00,,,0.48,6.000000,,2013-08-02 13:33:00,
2013-08-02 07:43:00,50.0,47.0,-100.00,NE,48,2.0,4.0,88,0.00,,,0.48,6.000000,,2013-08-02 13:43:00,
2013-08-02 07:52:00,50.0,47.0,-100.00,NE,48,2.0,4.0,88,0.00,,,0.48,6.000000,,2013-08-02 13:52:00,
2013-08-02 08:22:00,54.0,50.0,-100.00,ENE,67,0.0,2.0,87,0.00,,,0.47,36.000000,,2013-08-02 14:22:00,
2013-08-02 08:32:00,54.0,50.0,-100.00,ENE,67,0.0,2.0,87,0.00,,,0.47,36.000000,,2013-08-02 14:32:00,
2013-08-02 08:43:00,54.0,50.0,-100.00,ENE,67,0.0,2.0,87,0.00,,,0.47,36.000000,,2013-08-02 14:43:00,
2013-08-02 08:53:00,54.0,50.0,-100.00,ENE,67,0.0,2.0,87,0.00,,,0.47,36.000000,,2013-08-02 14:53:00,
2013-08-02 09:32:00,65.0,51.0,-100.00,NE,51,3.0,5.0,60,0.00,,,-99.99,333.000000,,2013-08-02 15:32:00,
2013-08-02 09:43:00,65.0,51.0,-100.00,NE,51,3.0,5.0,60,0.00,,,-99.99,333.000000,,2013-08-02 15:43:00,
2013-08-02 09:52:00,65.0,51.0,-100.00,NE,51,3.0,5.0,60,0.00,,,-99.99,333.000000,,2013-08-02 15:52:00,
2013-08-02 10:32:00,68.0,51.0,-100.00,SW,218,2.0,5.0,55,0.01,,,-99.99,530.000000,,2013-08-02 16:32:00,
2013-08-02 10:43:00,68.0,51.0,-100.00,SW,218,2.0,5.0,55,0.01,,,-99.99,530.000000,,2013-08-02 16:43:00,
2013-08-02 10:52:00,68.0,51.0,-100.00,SW,218,2.0,5.0,55,0.01,,,-99.99,530.000000,,2013-08-02 16:52:00,
2013-08-02 11:22:00,70.0,53.0,-100.00,WSW,247,3.0,9.0,54,0.00,,,0.44,708.000000,,2013-08-02 17:22:00,
2013-08-02 11:35:00,70.0,53.0,-100.00,WSW,247,3.0,9.0,54,0.00,,,0.44,708.000000,,2013-08-02 17:35:00,
2013-08-02 11:43:00,70.0,53.0,-100.00,WSW,247,3.0,9.0,54,0.00,,,0.44,708.000000,,2013-08-02 17:43:00,
2013-08-02 11:52:00,70.0,53.0,-100.00,WSW,247,3.0,9.0,54,0.00,,,0.44,708.000000,,2013-08-02 17:52:00,
2013-08-02 12:22:00,70.0,52.0,-100.00,WNW,303,3.0,10.0,53,0.00,,,0.43,694.000000,,2013-08-02 18:22:00,
2013-08-02 12:32:00,70.0,52.0,-100.00,WNW,303,3.0,10.0,53,0.00,,,0.43,694.000000,,2013-08-02 18:32:00,
2013-08-02 12:43:00,70.0,52.0,-100.00,WNW,303,3.0,10.0,53,0.00,,,0.43,694.000000,,2013-08-02 18:43:00,
2013-08-02 12:52:00,70.0,52.0,-100.00,WNW,303,3.0,10.0,53,0.00,,,0.43,694.000000,,2013-08-02 18:52:00,
2013-08-02 13:22:00,71.0,51.0,-100.00,WNW,286,3.0,10.0,50,0.00,,,0.43,773.000000,,2013-08-02 19:22:00,
2013-08-02 13:32:00,71.0,51.0,-100.00,WNW,286,3.0,10.0,50,0.00,,,0.43,773.000000,,2013-08-02 19:32:00,
2013-08-02 13:43:00,71.0,51.0,-100.00,WNW,286,3.0,10.0,50,0.00,,,0.43,773.000000,,2013-08-02 19:43:00,
2013-08-02 13:52:00,71.0,51.0,-100.00,WNW,286,3.0,10.0,50,0.00,,,0.43,773.000000,,2013-08-02 19:52:00,
2013-08-02 14:22:00,74.0,49.0,-100.00,WNW,282,4.0,10.0,42,0.00,,,0.43,882.000000,,2013-08-02 20:22:00,
2013-08-02 14:32:00,74.0,49.0,-100.00,WNW,282,4.0,10.0,42,0.00,,,0.43,882.000000,,2013-08-02 20:32:00,
2013-08-02 14:43:00,74.0,49.0,-100.00,WNW,282,4.0,10.0,42,0.00,,,0.43,882.000000,,2013-08-02 20:43:00,
2013-08-02 14:52:00,74.0,49.0,-100.00,WNW,282,4.0,10.0,42,0.00,,,0.43,882.000000,,2013-08-02 20:52:00,
2013-08-02 15:22:00,77.0,51.0,-100.00,SSW,196,4.0,10.0,41,0.00,,,0.43,953.000000,,2013-08-02 21:22:00,
2013-08-02 15:32:00,77.0,51.0,-100.00,SSW,196,4.0,10.0,41,0.00,,,0.43,953.000000,,2013-08-02 21:32:00,
2013-08-02 15:43:00,77.0,51.0,-100.00,SSW,196,4.0,10.0,41,0.00,,,0.43,953.000000,,2013-08-02 21:43:00,
2013-08-02 15:53:00,77.0,51.0,-100.00,SSW,196,4.0,10.0,41,0.00,,,0.43,953.000000,,2013-08-02 21:53:00,
2013-08-02 16:22:00,77.0,47.0,-100.00,WNW,284,5.0,11.0,35,0.00,,,0.42,906.000000,,2013-08-02 22:22:00,
2013-08-02 16:32:00,77.0,47.0,-100.00,WNW,284,5.0,11.0,35,0.00,,,0.42,906.000000,,2013-08-02 22:32:00,
2013-08-02 16:43:00,77.0,47.0,-100.00,WNW,284,5.0,11.0,35,0.00,,,0.42,906.000000,,2013-08-02 22:43:00,
2013-08-02 16:52:00,77.0,47.0,-100.00,WNW,284,5.0,11.0,35,0.00,,,0.42,906.000000,,2013-08-02 22:52:00,
2013-08-02 17:22:00,77.0,49.0,-100.00,WNW,284,4.0,13.0,37,0.00,,,0.42,575.000000,,2013-08-02 23:22:00,
2013-08-02 17:32:00,77.0,49.0,-100.00,WNW,284,4.0,13.0,37,0.00,,,0.42,575.000000,,2013-08-02 23:32:00,
2013-08-02 17:43:00,77.0,49.0,-100.00,WNW,284,4.0,13.0,37,0.00,,,0.42,575.000000,,2013-08-02 23:43:00,
2013-08-02 17:53:00,77.0,49.0,-100.00,WNW,284,4.0,13.0,37,0.00,,,0.42,575.000000,,2013-08-02 23:53:00,
2013-08-02 18:22:00,76.0,46.0,-100.00,WNW,288,2.0,11.0,35,0.00,,,-99.99,432.000000,,2013-08-03 00:22:00,
2013-08-02 18:33:00,76.0,46.0,-100.00,WNW,288,2.0,11.0,35,0.00,,,-99.99,432.000000,,2013-08-03 00:33:00,
2013-08-02 18:43:00,76.0,46.0,-100.00,WNW,288,2.0,11.0,35,0.00,,,-99.99,432.000000,,2013-08-03 00:43:00,
2013-08-02 19:22:00,74.0,45.0,-100.00,WSW,253,3.0,10.0,35,0.00,,,0.42,280.000000,,2013-08-03 01:22:00,
2013-08-02 19:32:00,74.0,45.0,-100.00,WSW,253,3.0,10.0,35,0.00,,,0.42,280.000000,,2013-08-03 01:32:00,
2013-08-02 19:42:00,74.0,45.0,-100.00,WSW,253,3.0,10.0,35,0.00,,,0.42,280.000000,,2013-08-03 01:42:00,
2013-08-02 20:22:00,68.0,49.0,-100.00,WNW,284,0.0,6.0,50,0.00,,,0.42,70.000000,,2013-08-03 02:22:00,
2013-08-02 20:32:00,68.0,49.0,-100.00,WNW,284,0.0,6.0,50,0.00,,,0.42,70.000000,,2013-08-03 02:32:00,
2013-08-02 20:43:00,68.0,49.0,-100.00,WNW,284,0.0,6.0,50,0.00,,,0.42,70.000000,,2013-08-03 02:43:00,
2013-08-02 20:52:00,68.0,49.0,-100.00,WNW,284,0.0,6.0,50,0.00,,,0.42,70.000000,,2013-08-03 02:52:00,
2013-08-02 21:22:00,64.0,49.0,-100.00,East,85,2.0,4.0,58,0.00,,,0.42,8.000000,,2013-08-03 03:22:00,
2013-08-02 21:32:00,64.0,49.0,-100.00,East,85,2.0,4.0,58,0.00,,,0.42,8.000000,,2013-08-03 03:32:00,
2013-08-02 21:43:00,64.0,49.0,-100.00,East,85,2.0,4.0,58,0.00,,,0.42,8.000000,,2013-08-03 03:43:00,
2013-08-02 21:53:00,64.0,49.0,-100.00,East,85,2.0,4.0,58,0.00,,,0.42,8.000000,,2013-08-03 03:53:00,
2013-08-02 22:22:00,62.0,49.0,-100.00,ESE,108,1.0,5.0,63,0.00,,,0.42,1.000000,,2013-08-03 04:22:00,
2013-08-02 22:32:00,62.0,49.0,-100.00,ESE,108,1.0,5.0,63,0.00,,,0.42,1.000000,,2013-08-03 04:32:00,
2013-08-02 22:43:00,62.0,49.0,-100.00,ESE,108,1.0,5.0,63,0.00,,,0.42,1.000000,,2013-08-03 04:43:00,
2013-08-02 22:53:00,62.0,49.0,-100.00,ESE,108,1.0,5.0,63,0.00,,,0.42,1.000000,,2013-08-03 04:53:00,
2013-08-02 23:22:00,60.0,51.0,-100.00,East,92,1.0,3.0,72,0.00,,,0.42,1.000000,,2013-08-03 05:22:00,
2013-08-02 23:32:00,60.0,51.0,-100.00,East,92,1.0,3.0,72,0.00,,,0.42,1.000000,,2013-08-03 05:32:00,
2013-08-02 23:42:00,60.0,51.0,-100.00,East,92,1.0,3.0,72,0.00,,,0.42,1.000000,,2013-08-03 05:42:00,
2013-08-02 23:52:00,60.0,51.0,-100.00,East,92,1.0,3.0,72,0.00,,,0.42,1.000000,,2013-08-03 05:52:00,